User: anonymous
Location: Caltech
(34.1382°N, 118.1253°W)
Time: 14:30:31
(UTC-07:00)
Language:

Cosmos 2219 - Orbit

View from above orbital plane
View from above orbital plane
View from above satellite
View from above satellite

Ground track
Ground track

The orbit data is extracted from the following two-line orbital elements,

1 22219U 92076A   14113.08691935 -.00000116  00000-0 -36808-4 0  4872
2 22219 071.0619 082.0129 0019700 339.6879 091.0886 14.13489977105557
Epoch (UTC): 23 April 2014 02:05:09
Eccentricity: 0.0019700
inclination: 71.0619°
perigee height: 833 km
apogee height: 861 km
right ascension of ascending node: 82.0129°
argument of perigee: 339.6879°
revolutions per day: 14.13489977
mean anomaly at epoch: 91.0886°
orbit number at epoch: 10555

The dashed part of the orbit path shows where the satellite is in the earth's shadow,  

DLR